Location: Brachbach
(49.1847°N, 9.7240°E)
Time: 11:24:13
(UTC+00:00)

COSMOS 860 DEB - Pass Details

Date: 06 October 2024
Orbit: 890 x 988 km, 64.7° (Epoch: 09 November)

Event Time Altitude Azimuth Distance (km) Brightness Sun altitude
Rises 19:15:16 0° 319° (NW) 3,650 ? -24.4°
Reaches altitude 10° 19:17:58 10° 326° (NW) 2,715 ? -24.8°
Maximum altitude 19:24:02 44° 38° (NE) 1,331 ? -25.8°
Enters shadow 19:24:44 43° 55° (NE) 1,360 ? -25.9°
